When you browse on this site, cookies collect data to enhance your experience and personalize the content and advertising you see.
Visit our Privacy Policy to learn more. By continuing to use the site, you agree to this use of cookies and data.

Hourly Weather Fez

Today, 25 September, Friday

Time Temperature Precipitation Wind Pressure Humidity
00:00 +30°C° 0 mm 2 mps 733 mmHg 27%
01:00 +29°C° 0 mm 2 mps 732 mmHg 30%
02:00 +28°C° 0 mm 2 mps 732 mmHg 32%
03:00 +28°C° 0 mm 2 mps 732 mmHg 34%
04:00 +27°C° 0 mm 2 mps 733 mmHg 36%
05:00 +27°C° 0 mm 2 mps 733 mmHg 37%
06:00 +26°C° 0 mm 2 mps 733 mmHg 39%
07:00 +27°C° 0 mm 2 mps 733 mmHg 38%
08:00 +29°C° 0 mm 3 mps 734 mmHg 36%
09:00 +30°C° 0 mm 3 mps 734 mmHg 35%
10:00 +32°C° 0 mm 4 mps 734 mmHg 33%
11:00 +33°C° 0 mm 5 mps 735 mmHg 31%
12:00 +34°C° 0 mm 6 mps 735 mmHg 28%
13:00 +35°C° 0 mm 6 mps 734 mmHg 28%
14:00 +35°C° 0 mm 6 mps 734 mmHg 27%
15:00 +35°C° 0 mm 6 mps 733 mmHg 27%
16:00 +34°C° 0 mm 6 mps 733 mmHg 29%
17:00 +32°C° 0 mm 5 mps 733 mmHg 30%
18:00 +30°C° 0 mm 5 mps 733 mmHg 32%
19:00 +29°C° 0 mm 4 mps 734 mmHg 35%
20:00 +27°C° 0 mm 3 mps 734 mmHg 37%
21:00 +26°C° 0 mm 2 mps 734 mmHg 40%
22:00 +25°C° 0 mm 2 mps 734 mmHg 42%
23:00 +24°C° 0 mm 2 mps 734 mmHg 44%

Tomorrow, 26 September, Saturday

Time Temperature Precipitation Wind Pressure Humidity
00:00 +24°C° 0 mm 2 mps 734 mmHg 46%
01:00 +23°C° 0 mm 2 mps 733 mmHg 48%
02:00 +21°C° 0 mm 2 mps 733 mmHg 49%
03:00 +20°C° 0 mm 2 mps 732 mmHg 51%
04:00 +21°C° 0 mm 1 mps 732 mmHg 53%
05:00 +20°C° 0 mm 1 mps 732 mmHg 54%
06:00 +20°C° 0 mm 1 mps 732 mmHg 56%
07:00 +21°C° 0 mm 1 mps 732 mmHg 50%
08:00 +22°C° 0 mm 1 mps 732 mmHg 44%
09:00 +24°C° 0 mm 2 mps 733 mmHg 39%
10:00 +25°C° 0 mm 2 mps 732 mmHg 35%
11:00 +27°C° 0 mm 3 mps 732 mmHg 30%
12:00 +28°C° 0 mm 4 mps 732 mmHg 26%
13:00 +29°C° 0 mm 4 mps 732 mmHg 25%
14:00 +30°C° 0 mm 4 mps 731 mmHg 23%
15:00 +30°C° 0 mm 5 mps 731 mmHg 22%
16:00 +29°C° 0 mm 5 mps 731 mmHg 24%
17:00 +28°C° 0 mm 5 mps 731 mmHg 27%
18:00 +26°C° 0 mm 6 mps 730 mmHg 29%
19:00 +25°C° 0 mm 5 mps 731 mmHg 34%
20:00 +22°C° 0 mm 4 mps 731 mmHg 39%
21:00 +21°C° 0 mm 2 mps 731 mmHg 43%
22:00 +20°C° 0 mm 2 mps 731 mmHg 47%
23:00 +20°C° 0 mm 2 mps 731 mmHg 50%

Day after tomorrow, 27 September, Sunday

Time Temperature Precipitation Wind Pressure Humidity
00:00 +20°C° 0 mm 1 mps 730 mmHg 53%
01:00 +20°C° 0 mm 1 mps 730 mmHg 55%
02:00 +19°C° 0 mm 1 mps 729 mmHg 57%
03:00 +17°C° 0 mm 0 mps 729 mmHg 59%
04:00 +18°C° 0 mm 1 mps 729 mmHg 60%
05:00 +18°C° 0 mm 1 mps 729 mmHg 61%
06:00 +16°C° 0 mm 1 mps 728 mmHg 63%
07:00 +19°C° 0 mm 1 mps 729 mmHg 56%
08:00 +20°C° 0 mm 1 mps 729 mmHg 50%
09:00 +22°C° 0 mm 1 mps 729 mmHg 44%
10:00 +23°C° 0 mm 1 mps 729 mmHg 37%
11:00 +25°C° 0 mm 2 mps 729 mmHg 31%
12:00 +27°C° 0 mm 2 mps 729 mmHg 25%
13:00 +28°C° 0 mm 3 mps 728 mmHg 24%
14:00 +28°C° 0 mm 3 mps 728 mmHg 23%
15:00 +29°C° 0 mm 4 mps 728 mmHg 22%
16:00 +28°C° 0 mm 3 mps 728 mmHg 24%
17:00 +27°C° 0 mm 3 mps 728 mmHg 27%
18:00 +27°C° 0 mm 2 mps 728 mmHg 29%
19:00 +25°C° 0 mm 2 mps 728 mmHg 35%
20:00 +24°C° 0 mm 2 mps 729 mmHg 42%
21:00 +23°C° 0 mm 1 mps 729 mmHg 48%
22:00 +22°C° 0 mm 1 mps 729 mmHg 50%
23:00 +22°C° 0 mm 1 mps 729 mmHg 51%

28 September, Monday

Time Temperature Precipitation Wind Pressure Humidity
00:00 +19°C° 0 mm 0 mps 728 mmHg 53%
01:00 +19°C° 0 mm 0 mps 728 mmHg 55%
02:00 +18°C° 0 mm 0 mps 728 mmHg 57%
03:00 +18°C° 0 mm 0 mps 728 mmHg 58%
04:00 +17°C° 0 mm 0 mps 728 mmHg 59%
05:00 +17°C° 0 mm 0 mps 728 mmHg 60%
06:00 +17°C° 0 mm 0 mps 728 mmHg 61%
07:00 +21°C° 0 mm 1 mps 728 mmHg 53%
08:00 +23°C° 0 mm 1 mps 728 mmHg 45%
09:00 +25°C° 0 mm 1 mps 729 mmHg 38%
10:00 +27°C° 0 mm 2 mps 728 mmHg 32%
11:00 +29°C° 0 mm 2 mps 728 mmHg 27%
12:00 +31°C° 0 mm 3 mps 728 mmHg 21%
13:00 +33°C° 0 mm 3 mps 728 mmHg 20%
14:00 +34°C° 0 mm 3 mps 728 mmHg 19%
15:00 +35°C° 0 mm 3 mps 727 mmHg 18%
16:00 +34°C° 0 mm 2 mps 727 mmHg 19%
17:00 +32°C° 0 mm 2 mps 727 mmHg 21%
18:00 +31°C° 0 mm 2 mps 727 mmHg 23%
19:00 +30°C° 0 mm 1 mps 728 mmHg 25%
20:00 +28°C° 0 mm 1 mps 728 mmHg 28%
21:00 +27°C° 0 mm 1 mps 729 mmHg 31%
22:00 +26°C° 0 mm 1 mps 729 mmHg 33%
23:00 +26°C° 0 mm 1 mps 729 mmHg 36%

29 September, Tuesday

Time Temperature Precipitation Wind Pressure Humidity
00:00 +23°C° 0 mm 0 mps 728 mmHg 38%
01:00 +24°C° 0 mm 1 mps 728 mmHg 39%
02:00 +24°C° 0 mm 1 mps 728 mmHg 40%
03:00 +24°C° 0 mm 1 mps 728 mmHg 40%
04:00 +23°C° 0 mm 1 mps 728 mmHg 40%
05:00 +23°C° 0 mm 1 mps 728 mmHg 41%
06:00 +23°C° 0 mm 1 mps 728 mmHg 41%
07:00 +25°C° 0 mm 1 mps 728 mmHg 36%
08:00 +27°C° 0 mm 1 mps 729 mmHg 32%
09:00 +29°C° 0 mm 1 mps 729 mmHg 27%
10:00 +31°C° 0 mm 2 mps 729 mmHg 24%
11:00 +35°C° 0 mm 2 mps 729 mmHg 21%
12:00 +37°C° 0 mm 2 mps 729 mmHg 18%
13:00 +38°C° 0 mm 2 mps 729 mmHg 17%
14:00 +38°C° 0 mm 3 mps 728 mmHg 16%
15:00 +39°C° 0 mm 3 mps 728 mmHg 15%
16:00 +38°C° 0 mm 3 mps 728 mmHg 17%
17:00 +36°C° 0 mm 2 mps 728 mmHg 19%
18:00 +35°C° 0 mm 2 mps 728 mmHg 21%
19:00 +32°C° 0 mm 2 mps 729 mmHg 24%
20:00 +31°C° 0 mm 2 mps 729 mmHg 27%
21:00 +29°C° 0 mm 1 mps 729 mmHg 30%
22:00 +28°C° 0 mm 1 mps 729 mmHg 34%
23:00 +27°C° 0 mm 1 mps 729 mmHg 37%

30 September, Wednesday

Time Temperature Precipitation Wind Pressure Humidity
00:00 +26°C° 0 mm 1 mps 729 mmHg 40%
01:00 +26°C° 0 mm 1 mps 729 mmHg 43%
02:00 +25°C° 0 mm 1 mps 729 mmHg 45%
03:00 +25°C° 0 mm 1 mps 729 mmHg 47%
04:00 +24°C° 0 mm 1 mps 729 mmHg 50%
05:00 +24°C° 0 mm 1 mps 729 mmHg 53%
06:00 +23°C° 0 mm 1 mps 729 mmHg 55%
07:00 +24°C° 0 mm 1 mps 729 mmHg 53%
08:00 +25°C° 0 mm 1 mps 730 mmHg 50%
09:00 +26°C° 0 mm 1 mps 730 mmHg 47%
10:00 +28°C° 0 mm 2 mps 730 mmHg 42%
11:00 +29°C° 0 mm 2 mps 730 mmHg 37%
12:00 +31°C° 0 mm 3 mps 730 mmHg 32%
13:00 +33°C° 0 mm 3 mps 730 mmHg 30%
14:00 +33°C° 0 mm 3 mps 729 mmHg 28%
15:00 +34°C° 0 mm 3 mps 729 mmHg 25%
16:00 +33°C° 0 mm 3 mps 729 mmHg 28%
17:00 +31°C° 0 mm 3 mps 729 mmHg 30%
18:00 +30°C° 0 mm 3 mps 730 mmHg 33%
19:00 +28°C° 0 mm 3 mps 730 mmHg 42%
20:00 +27°C° 0 mm 2 mps 730 mmHg 51%
21:00 +25°C° 0 mm 2 mps 730 mmHg 61%
22:00 +24°C° 0 mm 1 mps 730 mmHg 65%
23:00 +23°C° 0 mm 1 mps 730 mmHg 69%
Show more